Weather in Morskoy

Russia / Volgograd Oblast     48°05′34″N   42°35′24″E
temp.,
°C
wind,
m/s
gust,
m/s
humid.,
%
clouds,
%
prec.,
mm/h
press.,
hPa
HPBL,
m
5 december, sun
sun500:00+3nne5890100 0.0 1013211
03:00+3ene61090100 0.0 1012258
06:00+4ene5989100 0.0 1011269
09:00+5se4796100 5.2 1011220
12:00+7s61297100 4.6 1009483
15:00+7ssw3796100 6.8 1009242
18:00+6n5795100 0.9 1011263
21:00+4n469099 0.9 1014307
6 december, mon
mon600:00+4nnw458881 0.0 1016261
03:00+3n3487100 0.0 1017249
06:00+3nne1286100 0.0 1018203
09:00+4e1186100 0.0 1020195
12:00+5ssw0180100 0.0 1020340
15:00+6ssw1176100 0.0 1021258
18:00+5ese1280100 0.0 102224
21:00+4e3388100 0.0 102355
7 december, tue
tue700:00+4ese3585100 0.0 1023155
03:00+4ese4685100 0.0 1023183
06:00+5ese4785100 0.0 1023204
09:00+5ese6118798 0.0 1023302
12:00+7se71178100 0.0 1022405
15:00+8ese61177100 0.0 1020473
18:00+6ese61486100 0.0 1020394
21:00+6ese61686100 0.0 1019452
8 december, wed
wed800:00+6ese71581100 0.0 1018440
03:00+5ese7167990 0.0 1016486
06:00+5ese71679100 0.0 1015522
09:00+5se7157980 0.0 1015639
12:00+7se71274100 0.0 1014885
15:00+8ese61175100 0.0 1012680
18:00+8ese51077100 0.0 1012375
21:00+8ese5107297 0.0 1012396
9 december, thu
thu900:00+6ese4679100 0.0 1013157
03:00+5se4785100 0.0 1013138
06:00+5s3390100 0.0 101452
09:00+5sse229194 0.0 101427
12:00+8ssw237999 0.0 1015298
15:00+9w4780100 0.0 1016411
18:00+8ssw3478100 0.1 101790
21:00+8sw4985100 0.1 1017515